owner,sensor,date,latitude,longitude,vertical_datum,wind_speed,wind_to_direction,wind_speed_of_gust,qcFlag 
TABS,ioos:station:wmo:42045:1,2003-09-01T00:09:00Z,26.2168,-96.4998,4.0,4.955905568,156.072993,6.9,'11111222,11111222,11111222' 
TABS,ioos:station:wmo:42045:1,2003-09-01T00:39:00Z,26.2168,-96.4998,4.0,7.39714134,152.9849021,10.19,'11111222,11111222,11111222' 
TABS,ioos:station:wmo:42045:1,2003-09-01T01:09:00Z,26.2168,-96.4998,4.0,7.63,146.6018001,10.76,'11111222,11111222,11111222' 
TABS,ioos:station:wmo:42045:1,2003-09-01T01:39:00Z,26.2168,-96.4998,4.0,7.345890007,148.3008067,10.31,'11111222,11111222,11111222' 
TABS,ioos:station:wmo:42045:1,2003-09-01T02:09:00Z,26.2168,-96.4998,4.0,7.496966053,157.574401,10.65,'11111222,11111222,11111222' 
TABS,ioos:station:wmo:42045:1,2003-09-01T02:39:00Z,26.2168,-96.4998,4.0,7.277863698,151.0756655,10.46,'11111222,11111222,11111222' 
TABS,ioos:station:wmo:42045:1,2003-09-01T03:09:00Z,26.2168,-96.4998,4.0,7.022485315,159.3200729,10.27,'11111222,11111222,11111222' 
TABS,ioos:station:wmo:42045:1,2003-09-01T03:39:00Z,26.2168,-96.4998,4.0,6.758254212,168.3910264,9.33,'11111222,11111222,11111222' 
TABS,ioos:station:wmo:42045:1,2003-09-01T04:09:00Z,26.2168,-96.4998,4.0,6.568690889,169.5627595,9.03,'11111222,11111222,11111222' 
TABS,ioos:station:wmo:42045:1,2003-09-01T04:39:00Z,26.2168,-96.4998,4.0,6.948294755,167.3641035,10.01,'11111222,11111222,11111222' 
TABS,ioos:station:wmo:42045:1,2003-09-01T05:09:00Z,26.2168,-96.4998,4.0,7.017870047,167.0729371,10.14,'11111222,11111222,11111222' 
TABS,ioos:station:wmo:42045:1,2003-09-01T05:39:00Z,26.2168,-96.4998,4.0,7.404924037,167.5217871,10.71,'11111222,11111222,11111222' 
TABS,ioos:station:wmo:42045:1,2003-09-01T06:09:00Z,26.2168,-96.4998,4.0,7.499226627,166.1122418,10.68,'11111222,11111222,11111222' 
TABS,ioos:station:wmo:42045:1,2003-09-01T06:39:00Z,26.2168,-96.4998,4.0,6.552106531,172.1050961,9.71,'11111222,11111222,11111222' 
TABS,ioos:station:wmo:42045:1,2003-09-01T07:09:00Z,26.2168,-96.4998,4.0,6.872103026,181.4177174,10.08,'11111222,11111222,11111222' 
TABS,ioos:station:wmo:42045:1,2003-09-01T07:39:00Z,26.2168,-96.4998,4.0,8.005629269,176.4194201,10.98,'11111222,11111222,11111222' 
TABS,ioos:station:wmo:42045:1,2003-09-01T08:09:00Z,26.2168,-96.4998,4.0,7.860693354,175.8418997,10.7,'11111222,11111222,11111222' 
TABS,ioos:station:wmo:42045:1,2003-09-01T08:39:00Z,26.2168,-96.4998,4.0,8.06067615,170.9352224,10.7,'11111222,11111222,11111222' 
TABS,ioos:station:wmo:42045:1,2003-09-01T09:09:00Z,26.2168,-96.4998,4.0,7.720317351,173.4551437,10.87,'11111222,11111222,11111222' 
TABS,ioos:station:wmo:42045:1,2003-09-01T09:39:00Z,26.2168,-96.4998,4.0,7.371960391,178.6788356,10.64,'11111222,11111222,11111222' 
TABS,ioos:station:wmo:42045:1,2003-09-01T10:09:00Z,26.2168,-96.4998,4.0,6.951035894,179.0110314,9.42,'11111222,11111222,11111222' 
TABS,ioos:station:wmo:42045:1,2003-09-01T10:39:00Z,26.2168,-96.4998,4.0,7.030113797,174.6951133,9.45,'11111222,11111222,11111222' 
TABS,ioos:station:wmo:42045:1,2003-09-01T11:09:00Z,26.2168,-96.4998,4.0,7.169337487,173.9954016,9.51,'11111222,11111222,11111222' 
TABS,ioos:station:wmo:42045:1,2003-09-01T11:39:00Z,26.2168,-96.4998,4.0,8.612049698,185.6644506,11.61,'11111222,11111222,11111222' 
TABS,ioos:station:wmo:42045:1,2003-09-01T12:09:00Z,26.2168,-96.4998,4.0,7.880006345,179.9275003,10.78,'11111222,11111222,11111222' 
TABS,ioos:station:wmo:42045:1,2003-09-01T12:39:00Z,26.2168,-96.4998,4.0,6.346668417,191.9120881,9.48,'11111222,11111222,11111222' 
TABS,ioos:station:wmo:42045:1,2003-09-01T13:09:00Z,26.2168,-96.4998,4.0,5.915953009,194.7881044,8.85,'11111222,11111222,11111222' 
TABS,ioos:station:wmo:42045:1,2003-09-01T13:39:00Z,26.2168,-96.4998,4.0,6.279649672,191.2027544,8.53,'11111222,11111222,11111222' 
TABS,ioos:station:wmo:42045:1,2003-09-01T14:09:00Z,26.2168,-96.4998,4.0,7.26829416,192.7170951,10.23,'11111222,11111222,11111222' 
TABS,ioos:station:wmo:42045:1,2003-09-01T14:39:00Z,26.2168,-96.4998,4.0,5.827967056,211.6720448,8.6,'11111222,11111222,11111222' 
TABS,ioos:station:wmo:42045:1,2003-09-01T15:09:00Z,26.2168,-96.4998,4.0,5.819458738,219.3518711,8.47,'11111222,11111222,11111222' 
TABS,ioos:station:wmo:42045:1,2003-09-01T15:39:00Z,26.2168,-96.4998,4.0,5.032265891,240.7353476,8.05,'11111222,11111222,11111222' 
TABS,ioos:station:wmo:42045:1,2003-09-01T16:09:00Z,26.2168,-96.4998,4.0,4.328891313,257.7296317,6.83,'11111222,11111222,11111222' 
TABS,ioos:station:wmo:42045:1,2003-09-01T16:39:00Z,26.2168,-96.4998,4.0,3.65,270.0,8.56,'11111222,11111222,11111222' 
TABS,ioos:station:wmo:42045:1,2003-09-01T17:09:00Z,26.2168,-96.4998,4.0,6.539862384,294.0958646,10.98,'11111222,11111222,11111222' 
TABS,ioos:station:wmo:42045:1,2003-09-01T17:39:00Z,26.2168,-96.4998,4.0,5.256320005,313.2268407,7.72,'11111222,11111222,11111222' 
TABS,ioos:station:wmo:42045:1,2003-09-01T18:09:00Z,26.2168,-96.4998,4.0,4.558738861,321.1437873,6.54,'11111222,11111222,11111222' 
TABS,ioos:station:wmo:42045:1,2003-09-01T18:39:00Z,26.2168,-96.4998,4.0,5.003488783,326.6591602,7.84,'11111222,11111222,11111222' 
TABS,ioos:station:wmo:42045:1,2003-09-01T19:09:00Z,26.2168,-96.4998,4.0,3.924334338,14.4609292,6.58,'11111222,11111222,11111222' 
TABS,ioos:station:wmo:42045:1,2003-09-01T19:39:00Z,26.2168,-96.4998,4.0,4.025232913,43.28837269,6.14,'11111222,11111222,11111222' 
TABS,ioos:station:wmo:42045:1,2003-09-01T20:09:00Z,26.2168,-96.4998,4.0,2.951948509,62.56654061,5.2,'11111222,11111222,11111222' 
TABS,ioos:station:wmo:42045:1,2003-09-01T20:39:00Z,26.2168,-96.4998,4.0,2.122498528,83.77864371,5.15,'11111222,11111222,11111222' 
TABS,ioos:station:wmo:42045:1,2003-09-01T21:09:00Z,26.2168,-96.4998,4.0,2.12475881,83.24249734,4.77,'11111222,11111222,11111222' 
TABS,ioos:station:wmo:42045:1,2003-09-01T21:39:00Z,26.2168,-96.4998,4.0,2.941598205,72.79664789,6.32,'11111222,11111222,11111222' 
TABS,ioos:station:wmo:42045:1,2003-09-01T22:09:00Z,26.2168,-96.4998,4.0,4.651505133,119.2104888,7.23,'11111222,11111222,11111222' 
TABS,ioos:station:wmo:42045:1,2003-09-01T22:39:00Z,26.2168,-96.4998,4.0,5.107249749,169.3943629,7.94,'11111222,11111222,11111222' 
TABS,ioos:station:wmo:42045:1,2003-09-01T23:09:00Z,26.2168,-96.4998,4.0,4.252152396,142.6453111,6.82,'11111222,11111222,11111222' 
TABS,ioos:station:wmo:42045:1,2003-09-01T23:39:00Z,26.2168,-96.4998,4.0,3.272735859,146.2131105,5.76,'11111222,11111222,11111222' 
TABS,ioos:station:wmo:42045:1,2003-09-02T00:09:00Z,26.2168,-96.4998,4.0,3.071481727,132.6253597,5.05,'11111222,11111222,11111222' 
TABS,ioos:station:wmo:42045:1,2003-09-02T00:39:00Z,26.2168,-96.4998,4.0,3.165643694,128.7166712,5.62,'11111222,11111222,11111222' 
TABS,ioos:station:wmo:42045:1,2003-09-02T01:09:00Z,26.2168,-96.4998,4.0,3.902947604,141.8678086,6.31,'11111222,11111222,11111222' 
TABS,ioos:station:wmo:42045:1,2003-09-02T01:39:00Z,26.2168,-96.4998,4.0,4.14374227,134.6092252,6.19,'11111222,11111222,11111222' 
TABS,ioos:station:wmo:42045:1,2003-09-02T02:09:00Z,26.2168,-96.4998,4.0,4.889836398,123.235434,6.67,'11111222,11111222,11111222' 
TABS,ioos:station:wmo:42045:1,2003-09-02T02:39:00Z,26.2168,-96.4998,4.0,4.622812996,130.7898271,6.42,'11111222,11111222,11111222' 
TABS,ioos:station:wmo:42045:1,2003-09-02T03:09:00Z,26.2168,-96.4998,4.0,4.988196067,128.5704462,6.68,'11111222,11111222,11111222' 
TABS,ioos:station:wmo:42045:1,2003-09-02T03:39:00Z,26.2168,-96.4998,4.0,5.982725132,123.1326115,7.65,'11111222,11111222,11111222' 
TABS,ioos:station:wmo:42045:1,2003-09-02T04:09:00Z,26.2168,-96.4998,4.0,6.412370856,112.3659234,8.28,'11111222,11111222,11111222' 
TABS,ioos:station:wmo:42045:1,2003-09-02T04:39:00Z,26.2168,-96.4998,4.0,5.466004025,125.3186799,7.13,'11111222,11111222,11111222' 
TABS,ioos:station:wmo:42045:1,2003-09-02T05:09:00Z,26.2168,-96.4998,4.0,4.748526087,123.0545612,6.66,'11111222,11111222,11111222' 
TABS,ioos:station:wmo:42045:1,2003-09-02T05:39:00Z,26.2168,-96.4998,4.0,4.982057808,126.5942217,6.96,'11111222,11111222,11111222' 
TABS,ioos:station:wmo:42045:1,2003-09-02T06:09:00Z,26.2168,-96.4998,4.0,4.922214949,127.4056901,6.66,'11111222,11111222,11111222' 
TABS,ioos:station:wmo:42045:1,2003-09-02T06:39:00Z,26.2168,-96.4998,4.0,4.485398533,128.3010482,6.85,'11111222,11111222,11111222' 
TABS,ioos:station:wmo:42045:1,2003-09-02T07:09:00Z,26.2168,-96.4998,4.0,4.582455674,138.2733179,5.91,'11111222,11111222,11111222' 
TABS,ioos:station:wmo:42045:1,2003-09-02T07:39:00Z,26.2168,-96.4998,4.0,4.747820553,138.7576195,6.67,'11111222,11111222,11111222' 
TABS,ioos:station:wmo:42045:1,2003-09-02T08:09:00Z,26.2168,-96.4998,4.0,4.499477747,138.6945916,6.42,'11111222,11111222,11111222' 
TABS,ioos:station:wmo:42045:1,2003-09-02T08:39:00Z,26.2168,-96.4998,4.0,5.182557284,142.2901526,7.84,'11111222,11111222,11111222' 
TABS,ioos:station:wmo:42045:1,2003-09-02T09:09:00Z,26.2168,-96.4998,4.0,3.450797009,149.719941,4.91,'11111222,11111222,11111222' 
TABS,ioos:station:wmo:42045:1,2003-09-02T09:39:00Z,26.2168,-96.4998,4.0,4.651236395,153.9861241,7.35,'11111222,11111222,11111222' 
TABS,ioos:station:wmo:42045:1,2003-09-02T10:09:00Z,26.2168,-96.4998,4.0,4.521437824,153.038522,6.28,'11111222,11111222,11111222' 
TABS,ioos:station:wmo:42045:1,2003-09-02T10:39:00Z,26.2168,-96.4998,4.0,4.598314909,152.2649478,7.18,'11111222,11111222,11111222' 
TABS,ioos:station:wmo:42045:1,2003-09-02T11:09:00Z,26.2168,-96.4998,4.0,4.425573409,160.0503335,6.08,'11111222,11111222,11111222' 
TABS,ioos:station:wmo:42045:1,2003-09-02T11:39:00Z,26.2168,-96.4998,4.0,4.180191383,179.4519435,6.1,'11111222,11111222,11111222' 
TABS,ioos:station:wmo:42045:1,2003-09-02T12:09:00Z,26.2168,-96.4998,4.0,3.862292066,171.5134763,5.57,'11111222,11111222,11111222' 
TABS,ioos:station:wmo:42045:1,2003-09-02T12:39:00Z,26.2168,-96.4998,4.0,4.464616445,157.3409114,6.61,'11111222,11111222,11111222' 
TABS,ioos:station:wmo:42045:1,2003-09-02T13:09:00Z,26.2168,-96.4998,4.0,3.846621895,154.4344627,6.4,'11111222,11111222,11111222' 
TABS,ioos:station:wmo:42045:1,2003-09-02T13:39:00Z,26.2168,-96.4998,4.0,3.382853825,141.8430731,6.01,'11111222,11111222,11111222' 
TABS,ioos:station:wmo:42045:1,2003-09-02T14:09:00Z,26.2168,-96.4998,4.0,3.886309303,130.6176116,6.25,'11111222,11111222,11111222' 
TABS,ioos:station:wmo:42045:1,2003-09-02T14:39:00Z,26.2168,-96.4998,4.0,3.019751645,134.0611269,5.95,'11111222,11111222,11111222' 
TABS,ioos:station:wmo:42045:1,2003-09-02T15:09:00Z,26.2168,-96.4998,4.0,2.624061737,214.5986164,4.48,'11111222,11111222,11111222' 
TABS,ioos:station:wmo:42045:1,2003-09-02T15:39:00Z,26.2168,-96.4998,4.0,6.627586288,304.9848561,10.4,'11111222,11111222,11111222' 
TABS,ioos:station:wmo:42045:1,2003-09-02T16:09:00Z,26.2168,-96.4998,4.0,6.060140262,326.1000236,8.5,'11111222,11111222,11111222' 
TABS,ioos:station:wmo:42045:1,2003-09-02T16:39:00Z,26.2168,-96.4998,4.0,6.152479175,331.5603393,8.83,'11111222,11111222,11111222' 
TABS,ioos:station:wmo:42045:1,2003-09-02T17:09:00Z,26.2168,-96.4998,4.0,5.98645137,343.5022642,7.93,'11111222,11111222,11111222' 
TABS,ioos:station:wmo:42045:1,2003-09-02T17:39:00Z,26.2168,-96.4998,4.0,5.525984075,355.6408555,7.41,'11111222,11111222,11111222' 
TABS,ioos:station:wmo:42045:1,2003-09-02T18:09:00Z,26.2168,-96.4998,4.0,5.591511424,12.91757218,7.43,'11111222,11111222,11111222' 
TABS,ioos:station:wmo:42045:1,2003-09-02T18:39:00Z,26.2168,-96.4998,4.0,5.854400055,16.26778564,7.34,'11111222,11111222,11111222' 
TABS,ioos:station:wmo:42045:1,2003-09-02T19:09:00Z,26.2168,-96.4998,4.0,4.796707204,43.14118566,6.77,'11111222,11111222,11111222' 
TABS,ioos:station:wmo:42045:1,2003-09-02T19:39:00Z,26.2168,-96.4998,4.0,4.945563669,57.04864068,6.34,'11111222,11111222,11111222' 
TABS,ioos:station:wmo:42045:1,2003-09-02T20:09:00Z,26.2168,-96.4998,4.0,5.837233934,65.93748431,7.68,'11111222,11111222,11111222' 
TABS,ioos:station:wmo:42045:1,2003-09-02T20:39:00Z,26.2168,-96.4998,4.0,6.135315803,69.58567309,7.7,'11111222,11111222,11111222' 
TABS,ioos:station:wmo:42045:1,2003-09-02T21:09:00Z,26.2168,-96.4998,4.0,5.25,73.7394124,7.01,'11111222,11111222,11111222' 
TABS,ioos:station:wmo:42045:1,2003-09-02T21:39:00Z,26.2168,-96.4998,4.0,5.86475916,79.68601862,7.66,'11111222,11111222,11111222' 
TABS,ioos:station:wmo:42045:1,2003-09-02T22:09:00Z,26.2168,-96.4998,4.0,5.191194468,78.66802755,7.21,'11111222,11111222,11111222' 
TABS,ioos:station:wmo:42045:1,2003-09-02T22:39:00Z,26.2168,-96.4998,4.0,5.595292664,78.34827297,6.95,'11111222,11111222,11111222' 
TABS,ioos:station:wmo:42045:1,2003-09-02T23:09:00Z,26.2168,-96.4998,4.0,5.618051264,85.40533649,7.25,'11111222,11111222,11111222' 
TABS,ioos:station:wmo:42045:1,2003-09-02T23:39:00Z,26.2168,-96.4998,4.0,5.342106326,88.39057394,6.88,'11111222,11111222,11111222' 
TABS,ioos:station:wmo:42045:1,2003-09-03T00:09:00Z,26.2168,-96.4998,4.0,4.850010309,89.8814439,6.7,'11111222,11111222,11111222' 
TABS,ioos:station:wmo:42045:1,2003-09-03T00:39:00Z,26.2168,-96.4998,4.0,4.783022057,87.96272633,6.76,'11111222,11111222,11111222' 
TABS,ioos:station:wmo:42045:1,2003-09-03T01:09:00Z,26.2168,-96.4998,4.0,4.53547131,83.92446413,6.5,'11111222,11111222,11111222' 
TABS,ioos:station:wmo:42045:1,2003-09-03T01:39:00Z,26.2168,-96.4998,4.0,5.051138486,83.63434941,6.94,'11111222,11111222,11111222' 
TABS,ioos:station:wmo:42045:1,2003-09-03T02:09:00Z,26.2168,-96.4998,4.0,5.156064391,92.77958128,8.08,'11111222,11111222,11111222' 
TABS,ioos:station:wmo:42045:1,2003-09-03T02:39:00Z,26.2168,-96.4998,4.0,4.573193632,95.77333275,6.42,'11111222,11111222,11111222' 
TABS,ioos:station:wmo:42045:1,2003-09-03T03:09:00Z,26.2168,-96.4998,4.0,5.534473778,94.14503497,7.31,'11111222,11111222,11111222' 
TABS,ioos:station:wmo:42045:1,2003-09-03T03:39:00Z,26.2168,-96.4998,4.0,6.030074626,89.71452847,7.82,'11111222,11111222,11111222' 
TABS,ioos:station:wmo:42045:1,2003-09-03T04:09:00Z,26.2168,-96.4998,4.0,5.944552128,96.18094105,7.85,'11111222,11111222,11111222' 
TABS,ioos:station:wmo:42045:1,2003-09-03T04:39:00Z,26.2168,-96.4998,4.0,5.687635713,95.65085834,7.5,'11111222,11111222,11111222' 
TABS,ioos:station:wmo:42045:1,2003-09-03T05:09:00Z,26.2168,-96.4998,4.0,6.112609917,99.98665797,8.29,'11111222,11111222,11111222' 
TABS,ioos:station:wmo:42045:1,2003-09-03T05:39:00Z,26.2168,-96.4998,4.0,5.36209847,114.2232375,7.11,'11111222,11111222,11111222' 
TABS,ioos:station:wmo:42045:1,2003-09-03T06:09:00Z,26.2168,-96.4998,4.0,5.215908358,117.891916,7.24,'11111222,11111222,11111222' 
TABS,ioos:station:wmo:42045:1,2003-09-03T06:39:00Z,26.2168,-96.4998,4.0,4.889795497,124.080391,7.14,'11111222,11111222,11111222' 
TABS,ioos:station:wmo:42045:1,2003-09-03T07:09:00Z,26.2168,-96.4998,4.0,4.964876635,124.3305578,7.66,'11111222,11111222,11111222' 
TABS,ioos:station:wmo:42045:1,2003-09-03T07:39:00Z,26.2168,-96.4998,4.0,5.146591105,127.7386191,7.01,'11111222,11111222,11111222' 
TABS,ioos:station:wmo:42045:1,2003-09-03T08:09:00Z,26.2168,-96.4998,4.0,5.11594566,132.8616381,6.75,'11111222,11111222,11111222' 
TABS,ioos:station:wmo:42045:1,2003-09-03T08:39:00Z,26.2168,-96.4998,4.0,4.488128786,155.3767033,6.85,'11111222,11111222,11111222' 
TABS,ioos:station:wmo:42045:1,2003-09-03T09:09:00Z,26.2168,-96.4998,4.0,4.242852814,135.573253,5.93,'11111222,11111222,11111222' 
TABS,ioos:station:wmo:42045:1,2003-09-03T09:39:00Z,26.2168,-96.4998,4.0,4.248493851,148.1807406,6.96,'11111222,11111222,11111222' 
TABS,ioos:station:wmo:42045:1,2003-09-03T10:09:00Z,26.2168,-96.4998,4.0,4.378001827,143.0780504,6.55,'11111222,11111222,11111222' 
TABS,ioos:station:wmo:42045:1,2003-09-03T10:39:00Z,26.2168,-96.4998,4.0,4.082707435,145.8820693,6.18,'11111222,11111222,11111222' 
TABS,ioos:station:wmo:42045:1,2003-09-03T11:09:00Z,26.2168,-96.4998,4.0,4.352585439,141.1554696,6.26,'11111222,11111222,11111222' 
TABS,ioos:station:wmo:42045:1,2003-09-03T11:39:00Z,26.2168,-96.4998,4.0,4.305031939,147.2330743,5.94,'11111222,11111222,11111222' 
TABS,ioos:station:wmo:42045:1,2003-09-03T12:09:00Z,26.2168,-96.4998,4.0,4.062363844,151.7950454,5.87,'11111222,11111222,11111222' 
TABS,ioos:station:wmo:42045:1,2003-09-03T12:39:00Z,26.2168,-96.4998,4.0,4.028746703,161.4753588,5.91,'11111222,11111222,11111222' 
TABS,ioos:station:wmo:42045:1,2003-09-03T13:09:00Z,26.2168,-96.4998,4.0,3.537075063,167.2605935,4.93,'11111222,11111222,11111222' 
TABS,ioos:station:wmo:42045:1,2003-09-03T13:39:00Z,26.2168,-96.4998,4.0,3.698553771,159.7524464,5.27,'11111222,11111222,11111222' 
TABS,ioos:station:wmo:42045:1,2003-09-03T14:09:00Z,26.2168,-96.4998,4.0,3.277575323,158.5234697,4.64,'11111222,11111222,11111222' 
TABS,ioos:station:wmo:42045:1,2003-09-03T14:39:00Z,26.2168,-96.4998,4.0,3.994909261,168.8871959,5.53,'11111222,11111222,11111222' 
TABS,ioos:station:wmo:42045:1,2003-09-03T15:09:00Z,26.2168,-96.4998,4.0,3.343366567,177.4287806,4.67,'11111222,11111222,11111222' 
TABS,ioos:station:wmo:42045:1,2003-09-03T15:39:00Z,26.2168,-96.4998,4.0,2.741714792,191.1461809,4.24,'11111222,11111222,11111222' 
TABS,ioos:station:wmo:42045:1,2003-09-03T16:09:00Z,26.2168,-96.4998,4.0,2.627736669,201.1942174,4.23,'11111222,11111222,11111222' 
TABS,ioos:station:wmo:42045:1,2003-09-03T16:39:00Z,26.2168,-96.4998,4.0,2.120023585,180.2704709,3.18,'11111222,11111222,11111222' 
TABS,ioos:station:wmo:42045:1,2003-09-03T17:09:00Z,26.2168,-96.4998,4.0,3.06218876,163.1038675,4.47,'11111222,11111222,11111222' 
TABS,ioos:station:wmo:42045:1,2003-09-03T17:39:00Z,26.2168,-96.4998,4.0,2.429855963,155.4392238,3.77,'11111222,11111222,11111222' 
TABS,ioos:station:wmo:42045:1,2003-09-03T18:09:00Z,26.2168,-96.4998,4.0,2.44247825,154.7991457,4.07,'11111222,11111222,11111222' 
TABS,ioos:station:wmo:42045:1,2003-09-03T18:39:00Z,26.2168,-96.4998,4.0,2.022671501,155.4625394,3.83,'11111222,11111222,11111222' 
TABS,ioos:station:wmo:42045:1,2003-09-03T19:09:00Z,26.2168,-96.4998,4.0,2.373204585,157.9746917,3.98,'11111222,11111222,11111222' 
TABS,ioos:station:wmo:42045:1,2003-09-03T19:39:00Z,26.2168,-96.4998,4.0,2.147207489,145.0519925,3.94,'11111222,11111222,11111222' 
TABS,ioos:station:wmo:42045:1,2003-09-03T20:09:00Z,26.2168,-96.4998,4.0,2.867141434,170.7678802,4.36,'11111222,11111222,11111222' 
TABS,ioos:station:wmo:42045:1,2003-09-03T20:39:00Z,26.2168,-96.4998,4.0,1.802720167,154.7145641,3.49,'11111222,11111222,11111222' 
TABS,ioos:station:wmo:42045:1,2003-09-03T21:09:00Z,26.2168,-96.4998,4.0,2.112439348,161.2222211,3.65,'11111222,11111222,11111222' 
TABS,ioos:station:wmo:42045:1,2003-09-03T21:39:00Z,26.2168,-96.4998,4.0,2.271497304,123.6904097,4.17,'11111222,11111222,11111222' 
TABS,ioos:station:wmo:42045:1,2003-09-03T22:09:00Z,26.2168,-96.4998,4.0,2.952964612,114.8297094,4.82,'11111222,11111222,11111222' 
TABS,ioos:station:wmo:42045:1,2003-09-03T22:39:00Z,26.2168,-96.4998,4.0,2.227666941,134.0909374,3.47,'11111222,11111222,11111222' 
TABS,ioos:station:wmo:42045:1,2003-09-03T23:09:00Z,26.2168,-96.4998,4.0,2.93743085,113.6855871,4.65,'11111222,11111222,11111222' 
TABS,ioos:station:wmo:42045:1,2003-09-03T23:39:00Z,26.2168,-96.4998,4.0,3.221319605,96.59594184,5.17,'11111222,11111222,11111222' 
TABS,ioos:station:wmo:42045:1,2003-09-04T00:09:00Z,26.2168,-96.4998,4.0,4.226700841,99.39586497,5.64,'11111222,11111222,11111222' 
TABS,ioos:station:wmo:42045:1,2003-09-04T00:39:00Z,26.2168,-96.4998,4.0,4.131646161,94.30339289,5.52,'11111222,11111222,11111222' 
TABS,ioos:station:wmo:42045:1,2003-09-04T01:09:00Z,26.2168,-96.4998,4.0,4.940951325,103.2209902,6.22,'11111222,11111222,11111222' 
TABS,ioos:station:wmo:42045:1,2003-09-04T01:39:00Z,26.2168,-96.4998,4.0,4.676419571,103.3531578,5.75,'11111222,11111222,11111222' 
TABS,ioos:station:wmo:42045:1,2003-09-04T02:09:00Z,26.2168,-96.4998,4.0,5.107660913,102.3223567,6.54,'11111222,11111222,11111222' 
TABS,ioos:station:wmo:42045:1,2003-09-04T02:39:00Z,26.2168,-96.4998,4.0,5.25709045,111.5386787,6.38,'11111222,11111222,11111222' 
TABS,ioos:station:wmo:42045:1,2003-09-04T03:09:00Z,26.2168,-96.4998,4.0,5.471179032,118.0174008,6.87,'11111222,11111222,11111222' 
TABS,ioos:station:wmo:42045:1,2003-09-04T03:39:00Z,26.2168,-96.4998,4.0,5.031947933,115.546928,6.65,'11111222,11111222,11111222' 
TABS,ioos:station:wmo:42045:1,2003-09-04T04:09:00Z,26.2168,-96.4998,4.0,4.623169908,125.5812358,6.29,'11111222,11111222,11111222' 
TABS,ioos:station:wmo:42045:1,2003-09-04T04:39:00Z,26.2168,-96.4998,4.0,4.745366161,130.4706594,6.88,'11111222,11111222,11111222' 
TABS,ioos:station:wmo:42045:1,2003-09-04T05:09:00Z,26.2168,-96.4998,4.0,4.663475099,129.0822692,6.22,'11111222,11111222,11111222' 
TABS,ioos:station:wmo:42045:1,2003-09-04T05:39:00Z,26.2168,-96.4998,4.0,4.097962909,132.5279461,5.66,'11111222,11111222,11111222' 
TABS,ioos:station:wmo:42045:1,2003-09-04T06:09:00Z,26.2168,-96.4998,4.0,3.97367588,151.4358475,5.48,'11111222,11111222,11111222' 
TABS,ioos:station:wmo:42045:1,2003-09-04T06:39:00Z,26.2168,-96.4998,4.0,4.016030378,146.2706529,5.57,'11111222,11111222,11111222' 
TABS,ioos:station:wmo:42045:1,2003-09-04T07:09:00Z,26.2168,-96.4998,4.0,7.043479254,135.8056231,9.3,'11111222,11111222,11111222' 
TABS,ioos:station:wmo:42045:1,2003-09-04T07:39:00Z,26.2168,-96.4998,4.0,3.230123837,173.6012688,4.4,'11111222,11111222,11111222' 
TABS,ioos:station:wmo:42045:1,2003-09-04T08:09:00Z,26.2168,-96.4998,4.0,3.006675905,149.8535794,4.23,'11111222,11111222,11111222' 
TABS,ioos:station:wmo:42045:1,2003-09-04T08:39:00Z,26.2168,-96.4998,4.0,2.485578404,138.0987654,3.33,'11111222,11111222,11111222' 
TABS,ioos:station:wmo:42045:1,2003-09-04T09:09:00Z,26.2168,-96.4998,4.0,2.756700927,140.5939061,4.71,'11111222,11111222,11111222' 
TABS,ioos:station:wmo:42045:1,2003-09-04T09:39:00Z,26.2168,-96.4998,4.0,3.361800113,178.1251299,5.01,'11111222,11111222,11111222' 
TABS,ioos:station:wmo:42045:1,2003-09-04T10:09:00Z,26.2168,-96.4998,4.0,2.883123306,167.9887602,4.05,'11111222,11111222,11111222' 
TABS,ioos:station:wmo:42045:1,2003-09-04T10:39:00Z,26.2168,-96.4998,4.0,2.724059471,154.5640536,4.2,'11111222,11111222,11111222' 
TABS,ioos:station:wmo:42045:1,2003-09-04T11:09:00Z,26.2168,-96.4998,4.0,2.125323505,155.2439565,3.58,'11111222,11111222,11111222' 
TABS,ioos:station:wmo:42045:1,2003-09-04T11:39:00Z,26.2168,-96.4998,4.0,2.449510155,168.4609396,3.79,'11111222,11111222,11111222' 
TABS,ioos:station:wmo:42045:1,2003-09-04T12:09:00Z,26.2168,-96.4998,4.0,1.740718243,178.3542368,2.93,'11111222,11111222,11111222' 
TABS,ioos:station:wmo:42045:1,2003-09-04T12:39:00Z,26.2168,-96.4998,4.0,1.478005413,134.1779466,3.0,'11111222,11111222,11111222' 
TABS,ioos:station:wmo:42045:1,2003-09-04T13:09:00Z,26.2168,-96.4998,4.0,1.789664773,133.415465,3.37,'11111222,11111222,11111222' 
TABS,ioos:station:wmo:42045:1,2003-09-04T13:39:00Z,26.2168,-96.4998,4.0,2.205923843,118.4242511,3.82,'11111222,11111222,11111222' 
TABS,ioos:station:wmo:42045:1,2003-09-04T14:09:00Z,26.2168,-96.4998,4.0,2.475237362,105.9457795,4.1,'11111222,11111222,11111222' 
TABS,ioos:station:wmo:42045:1,2003-09-04T14:39:00Z,26.2168,-96.4998,4.0,1.92418814,114.5675348,3.99,'11111222,11111222,11111222' 
TABS,ioos:station:wmo:42045:1,2003-09-04T15:09:00Z,26.2168,-96.4998,4.0,2.151882896,115.0172559,3.67,'11111222,11111222,11111222' 
TABS,ioos:station:wmo:42045:1,2003-09-04T15:39:00Z,26.2168,-96.4998,4.0,2.115892247,98.97302655,3.6,'11111222,11111222,11111222' 
TABS,ioos:station:wmo:42045:1,2003-09-04T16:09:00Z,26.2168,-96.4998,4.0,2.224095322,96.45439242,3.96,'11111222,11111222,11111222' 
TABS,ioos:station:wmo:42045:1,2003-09-04T16:39:00Z,26.2168,-96.4998,4.0,2.410995645,84.52546368,3.99,'11111222,11111222,11111222' 
TABS,ioos:station:wmo:42045:1,2003-09-04T17:09:00Z,26.2168,-96.4998,4.0,2.440327847,90.93960967,4.25,'11111222,11111222,11111222' 
TABS,ioos:station:wmo:42045:1,2003-09-04T17:39:00Z,26.2168,-96.4998,4.0,2.826393462,100.3959009,4.26,'11111222,11111222,11111222' 
TABS,ioos:station:wmo:42045:1,2003-09-04T18:09:00Z,26.2168,-96.4998,4.0,2.770072201,89.5858993,4.09,'11111222,11111222,11111222' 
TABS,ioos:station:wmo:42045:1,2003-09-04T18:39:00Z,26.2168,-96.4998,4.0,3.255579825,81.52104694,4.82,'11111222,11111222,11111222' 